Regional Weather Roundup
Issued by NWS Charleston, SC

Current Version | Previous Version | Graphics & Text | Print | Product List | Glossary On
Versions: 1 2 3 4 5 6 7 8 9 10 11 12 13 14 15 16 17 18 19 20 21 22 23 24 25 26 27 28 29 30 31 32 33 34 35 36 37 38 39 40 41 42 43 44 45 46 47 48 49 50
000 ASUS42 KCHS 180127 RWRCHS Regional Weather Roundup National Weather Service Charleston SC 800 PM EST SUN DEC 17 2017 NOTE: "fair" indicates few or no clouds below 12,000 feet with no significant weather and/or obstructions to visibility. Not all stations are quality controlled. Use data with caution, especially dewpoint observations. SCZ027-030-031-034>040-042>050-180200- ...Southeast South Carolina... CITY SKY/WX TMP DP RH WIND PRES REMARKS N Charleston CLOUDY 56 46 69 S6 30.21S Waterfront Prk N/A 53 49 86 VRB2 30.07S Mount Pleasant CLOUDY 54 48 82 CALM 30.21S Johns Island CLOUDY 54 48 82 CALM 30.22S Pinopolis N/A 55 43 62 CALM 30.12S Moncks Corner FAIR 54 41 62 CALM 30.22R Summerville CLOUDY 55 45 67 CALM 30.22R Beaufort MCAS CLOUDY 56 50 80 CALM 30.21S Beaufort Arpt CLOUDY 54 50 87 CALM 30.21R Hilton Head Is MOCLDY 57 52 82 CALM 30.23R Walterboro CLOUDY 54 45 71 CALM 30.21R Allendale MOCLDY 57 43 58 SE3 30.19S ...Southern Midlands and Pee Dee... CITY SKY/WX TMP DP RH WIND PRES REMARKS Georgetown CLOUDY 52 50 93 CALM 30.22S Kingstree CLOUDY 52 41 66 CALM 30.22R Orangeburg CLOUDY 56 39 53 SE3 30.20S Barnwell N/A 59 41 51 CALM 30.20S Aiken CLOUDY 50 41 71 NE3 30.23R Manning CLOUDY 52 30 43 MISG 30.21S Columbia CLOUDY 55 41 59 CALM 30.20S Sumter CLOUDY 53 37 55 CALM 30.18F Florence CLOUDY 53 40 61 CALM 30.22R Myrtle Beach CLOUDY 54 49 83 CALM 30.23R N Myrtle Beach CLOUDY 53 48 83 CALM 30.22R $$ GAZ063-065-086>088-099>101-113>116-118-119-134>141-150-180200- ...Southeast Georgia... CITY SKY/WX TMP DP RH WIND PRES REMARKS Savannah Arpt CLOUDY 57 48 72 S5 30.23R Hunter AAF CLOUDY 56 47 72 SE5 30.20R Fort Stewart CLOUDY 56 48 74 SE5 N/A Statesboro PTCLDY 59 45 59 SE6 30.18F Sylvania CLOUDY 59 48 67 S5 30.20S Claxton FAIR 59 50 72 CALM 30.20R ...CSRA, Central and far Southeast Georgia... CITY SKY/WX TMP DP RH WIND PRES REMARKS Thomson CLOUDY 51 43 73 CALM 30.25R Augusta-Bush MOCLDY 55 39 54 CALM 30.18S Augusta-Daniel CLOUDY 56 38 50 N5 30.19S Swainsboro MOCLDY 61 48 63 N5 30.19R Vidalia CLOUDY 61 54 77 S6 30.17F Eastman MOCLDY 65 49 57 S6 30.19R Hazlehurst FAIR 62 52 68 S3 30.17F Alma CLOUDY 64 57 78 NW3 30.21R Waycross CLOUDY 62 58 86 CALM 30.22R Jesup MOCLDY 59 54 82 CALM 30.22 Baxley MOCLDY 59 59 100 S3 30.19F Brunswick CLEAR 54 46 76 CALM 30.23R Saint Simons CLEAR 57 55 93 E6 30.20F $$ SCZ027-028-034-036>038-045-046-048>050-GAZ119-141-180200- ...Lake and Supplemental Coastal Observations... STATION/POSITION TIME TEMP WIND PRES WAVE SWELL AIR SEA DIR/SP/G HT/PER HT/PER/DIR (UTC) (F) (DEG/KT/KT) (MB) (FT/S) (FT/S/D) Winyah Bay 0030 52 200/ 2 1023.0S Lake Murray 0020 53 CALM / 2 1021.7 ACE Basin NERRS 0045 53 CALM 1023.0S Fort Pulaski 0100 56 54 140/ 4/ 5 1023.4 Sapelo Island 0100 57 100/ 6 1023.0 $$ ANZ835-935-AMZ111-154-330-350-352-354-370-450-454-472-180200- ...C-MAN and Buoy Observations... STATION/POSITION TIME TEMP WIND PRES WAVE SWELL AIR SEA DIR/SP/G HT/PER HT/PER/DIR (UTC) (F) (DEG/KT/KT) (MB) (FT/S) (FT/S/D) Buoy 41004 0100 66 190/ 6/ 10 1022.8 Buoy 41008 0050 60 59 110/ 6/ 6 1022.9F 1/10 2/110/10 Folly Beach CMAN 0100 54 110/ 3/ 3 1023.6F Capers Nearshore 0108 53 55 140/ 6/ 8 1022.7F STATION/POSITION TIME TEMP WIND PRES WAVE SWELL AIR SEA DIR/SP/G HT/PER HT/PER/DIR (UTC) (F) (DEG/KT/KT) (MB) (FT/S) (FT/S/D) 5E St. Marys GA 0100 62 N/A 2/10 Frying Pan Buoy 0100 220/ 2/ 4 1023.1 Buoy 41025 0110 59 72 320/ 6/ 8 1024.1 Cape Lookout NC 0100 30/ 4/ 4 1023.8R Buoy 41002 0050 67 74 190/ 6/ 10 1024.8F 2/10 2/ 60/10 Buoy 41010 NOT AVBL St Augustine FL 0100 66 65 120/ 5/ 5 1023.7R $$

USA.gov is the U.S. government's official web portal to all federal, state and local government web resources and services.